Погода в Бесни

Турция     37°41′38″N   37°51′42″E
темп.,
°C
ветер,
м/с
пор.,
м/с
влажн.,
%
обл.,
%
осадки,
мм/ч
давл.,
гПа
погр.,
м
4 июля, пн
пн400:00+20ссз56310 0.0 100676
03:00+18ссз55380 0.0 100659
06:00+17ссз55390 0.0 100775
09:00+24ссз44180 0.0 1006514
12:00+30с32110 0.0 10051286
15:00+32с4380 0.0 10032195
18:00+32с4490 0.0 10031715
21:00+26ссз43150 0.0 100424
5 июля, вт
вт500:00+23ссз43210 0.0 100527
03:00+21ссз43290 0.0 100524
06:00+20ссз43340 0.0 100636
09:00+27ссз23200 0.0 1005595
12:00+31з11110 0.0 10042671
15:00+33зсз2190 0.0 10023311
18:00+33сз12100 0.0 10013652
21:00+27с33170 0.0 100219
6 июля, ср
ср600:00+25ссз33190 0.0 100323
03:00+23ссз43260 0.0 100329
06:00+22ссз43310 0.0 100442
09:00+29ссз23200 0.0 1003636
12:00+33ююв11120 0.0 10023764
15:00+35ю43105 0.0 10014354
18:00+34ююв441188 0.0 10004183
21:00+29ссз332017 0.0 100116
7 июля, чт
чт700:00+26ссз432312 0.0 100231
03:00+24ссз43325 0.0 100232
06:00+23ссз33370 0.0 100337
09:00+30ссз23246 0.0 1003748
12:00+34ю131796 0.0 10014114
15:00+29всв562699 0.0 1003315
18:00+32юз22217 0.0 10011077
21:00+29ссз59255 0.0 1002140
8 июля, пт
пт800:00+26сз44295 0.0 100438
03:00+24ссз44395 0.0 100450
06:00+23ссз44435 0.0 100562
09:00+30ссз34244 0.0 1004915
12:00+33зсз44161 0.0 10043059
15:00+34зсз44141 0.0 10023373
18:00+33ссз64131 0.0 10022750
21:00+28ссз711170 0.0 1004213